VOZ1851 YPPH-YPKG

Flight info

Callsign VOZ1851
Flight time 0h 47m
Altitude 37000
Route PH Y31 LAKIR Y69 BOSLI Y67 KG
Aircraft B737/M-SDE2E3FGHIRWXY/LB1

Departure

Time 2026-04-18 08:09
Airport Perth International Airport (YPPH)

Arrival

Time 2026-04-18 08:57
Airport Kalgoorlie Boulder Airport (YPKG)
Time Latitude Longitude Altitude Speed Heading
2026-04-18 07:47 -31.94133 115.96919 60 ft 0 kts
2026-04-18 07:59 -31.94134 115.96919 67 ft 2 kts
2026-04-18 07:59 -31.94160 115.96917 60 ft 4 kts 356°
2026-04-18 07:59 -31.94186 115.96923 62 ft 4 kts 334°
2026-04-18 08:00 -31.94205 115.96940 67 ft 3 kts 289°
2026-04-18 08:00 -31.94206 115.96945 57 ft 0 kts 284°
2026-04-18 08:04 -31.94204 115.96936 67 ft 4 kts 284°
2026-04-18 08:04 -31.94196 115.96895 63 ft 7 kts 284°
2026-04-18 08:04 -31.94177 115.96834 61 ft 9 kts 313°
2026-04-18 08:05 -31.94117 115.96832 62 ft 10 kts 13°
2026-04-18 08:05 -31.94036 115.96855 65 ft 14 kts 14°
2026-04-18 08:05 -31.93944 115.96882 62 ft 14 kts 14°
2026-04-18 08:05 -31.93829 115.96915 61 ft 21 kts 13°
2026-04-18 08:06 -31.93679 115.96959 62 ft 22 kts 14°
2026-04-18 08:06 -31.93529 115.97004 65 ft 22 kts 14°
2026-04-18 08:06 -31.93384 115.97047 61 ft 22 kts 14°
2026-04-18 08:06 -31.93231 115.97089 62 ft 23 kts 13°
2026-04-18 08:07 -31.93075 115.97137 64 ft 21 kts 14°
2026-04-18 08:07 -31.92979 115.97162 64 ft 12 kts
2026-04-18 08:07 -31.92933 115.97095 64 ft 11 kts 285°
2026-04-18 08:07 -31.92914 115.97007 62 ft 11 kts 283°
2026-04-18 08:08 -31.92896 115.96921 62 ft 11 kts 284°
2026-04-18 08:08 -31.92885 115.96847 68 ft 7 kts 249°
2026-04-18 08:08 -31.92964 115.96816 64 ft 33 kts 195°
2026-04-18 08:08 -31.93429 115.96680 65 ft 102 kts 194°
2026-04-18 08:09 -31.94313 115.96423 75 ft 155 kts 195°
2026-04-18 08:09 -31.95418 115.96129 570 ft 164 kts 194°
2026-04-18 08:09 -31.96496 115.95826 1434 ft 151 kts 194°
2026-04-18 08:09 -31.97534 115.95535 2069 ft 160 kts 195°
2026-04-18 08:10 -31.98731 115.95204 2403 ft 190 kts 194°
2026-04-18 08:10 -32.00123 115.94987 2677 ft 218 kts 174°
2026-04-18 08:10 -32.01649 115.95473 3087 ft 240 kts 156°
2026-04-18 08:10 -32.03184 115.96523 3355 ft 270 kts 142°
2026-04-18 08:11 -32.04308 115.98402 3751 ft 293 kts 108°
2026-04-18 08:11 -32.04783 116.00779 4488 ft 301 kts 101°
2026-04-18 08:11 -32.05204 116.03207 5373 ft 304 kts 101°
2026-04-18 08:11 -32.05675 116.05688 6086 ft 315 kts 103°
2026-04-18 08:12 -32.06206 116.08231 6814 ft 325 kts 104°
2026-04-18 08:12 -32.06782 116.10797 7646 ft 329 kts 105°
2026-04-18 08:12 -32.07394 116.13432 8531 ft 335 kts 105°
2026-04-18 08:12 -32.08023 116.16112 9425 ft 342 kts 105°
2026-04-18 08:13 -32.08539 116.18872 10266 ft 349 kts 92°
2026-04-18 08:13 -32.08189 116.21695 11111 ft 350 kts 68°
2026-04-18 08:13 -32.06996 116.24141 11957 ft 350 kts 47°
2026-04-18 08:13 -32.05349 116.26272 12797 ft 354 kts 44°
2026-04-18 08:14 -32.03611 116.28380 13610 ft 360 kts 43°
2026-04-18 08:14 -32.01866 116.30486 14351 ft 366 kts 43°
2026-04-18 08:14 -32.00085 116.32661 15119 ft 371 kts 44°
2026-04-18 08:14 -31.98293 116.34878 15937 ft 376 kts 44°
2026-04-18 08:15 -31.96480 116.37136 16754 ft 381 kts 44°
2026-04-18 08:15 -31.94645 116.39424 17514 ft 387 kts 44°
2026-04-18 08:15 -31.92775 116.41757 17807 ft 390 kts 44°
2026-04-18 08:15 -31.90908 116.44087 17990 ft 392 kts 44°
2026-04-18 08:16 -31.89019 116.46443 18489 ft 399 kts 44°
2026-04-18 08:16 -31.87132 116.48796 19240 ft 401 kts 44°
2026-04-18 08:16 -31.85209 116.51192 20008 ft 404 kts 44°
2026-04-18 08:16 -31.83267 116.53611 20702 ft 409 kts 44°
2026-04-18 08:17 -31.81293 116.56068 21370 ft 414 kts 44°
2026-04-18 08:17 -31.79298 116.58550 22045 ft 418 kts 44°
2026-04-18 08:17 -31.77284 116.61052 22715 ft 423 kts 44°
2026-04-18 08:17 -31.75272 116.63550 23344 ft 428 kts 44°
2026-04-18 08:18 -31.73206 116.66097 23922 ft 433 kts 44°
2026-04-18 08:18 -31.71104 116.68676 24463 ft 438 kts 44°
2026-04-18 08:18 -31.68984 116.71274 25005 ft 442 kts 44°
2026-04-18 08:18 -31.66844 116.73898 25529 ft 446 kts 44°
2026-04-18 08:19 -31.64687 116.76544 26036 ft 451 kts 44°
2026-04-18 08:19 -31.62504 116.79221 26550 ft 455 kts 44°
2026-04-18 08:19 -31.60301 116.81922 27046 ft 459 kts 44°
2026-04-18 08:19 -31.58109 116.84606 27538 ft 463 kts 45°
2026-04-18 08:20 -31.55940 116.87435 28007 ft 469 kts 51°
2026-04-18 08:20 -31.54119 116.90627 28507 ft 472 kts 61°
2026-04-18 08:20 -31.52598 116.94055 29020 ft 476 kts 63°
2026-04-18 08:20 -31.51113 116.97544 29461 ft 480 kts 64°
2026-04-18 08:21 -31.49626 117.01064 29892 ft 484 kts 64°
2026-04-18 08:21 -31.48118 117.04606 30294 ft 488 kts 64°
2026-04-18 08:21 -31.46580 117.08172 30664 ft 490 kts 63°
2026-04-18 08:21 -31.45043 117.11699 31036 ft 493 kts 63°
2026-04-18 08:22 -31.43472 117.15281 31410 ft 495 kts 63°
2026-04-18 08:22 -31.41886 117.18885 31751 ft 498 kts 62°
2026-04-18 08:22 -31.40295 117.22496 32071 ft 500 kts 62°
2026-04-18 08:22 -31.38691 117.26132 32443 ft 501 kts 62°
2026-04-18 08:23 -31.37091 117.29758 32914 ft 500 kts 62°
2026-04-18 08:23 -31.35515 117.33328 33389 ft 498 kts 62°
2026-04-18 08:23 -31.33925 117.36929 33809 ft 498 kts 62°
2026-04-18 08:23 -31.32331 117.40536 34167 ft 498 kts 62°
2026-04-18 08:24 -31.30738 117.44136 34458 ft 499 kts 62°
2026-04-18 08:24 -31.29139 117.47749 34741 ft 500 kts 61°
2026-04-18 08:24 -31.27533 117.51370 35003 ft 502 kts 61°
2026-04-18 08:24 -31.25939 117.55007 35276 ft 503 kts 62°
2026-04-18 08:25 -31.24411 117.58682 35563 ft 503 kts 63°
2026-04-18 08:25 -31.22935 117.62342 35843 ft 504 kts 63°
2026-04-18 08:25 -31.21448 117.66062 36103 ft 505 kts 63°
2026-04-18 08:25 -31.19958 117.69786 36386 ft 505 kts 63°
2026-04-18 08:26 -31.18461 117.73506 36687 ft 504 kts 63°
2026-04-18 08:26 -31.16973 117.77175 36973 ft 504 kts 63°
2026-04-18 08:26 -31.15464 117.80879 37113 ft 508 kts 62°
2026-04-18 08:27 -31.12401 117.88361 37102 ft 510 kts 62°
2026-04-18 08:27 -31.09353 117.95789 37083 ft 503 kts 62°
2026-04-18 08:28 -31.06323 118.03162 37102 ft 503 kts 62°
2026-04-18 08:28 -31.03312 118.10475 37094 ft 503 kts 62°
2026-04-18 08:29 -31.00270 118.17847 37100 ft 503 kts 62°
2026-04-18 08:29 -30.97231 118.25199 37094 ft 503 kts 62°
2026-04-18 08:30 -30.94199 118.32518 37094 ft 504 kts 62°
2026-04-18 08:30 -30.91138 118.39895 37095 ft 505 kts 62°
2026-04-18 08:31 -30.88070 118.47272 37092 ft 506 kts 62°
2026-04-18 08:31 -30.85014 118.54607 37055 ft 506 kts 61°
2026-04-18 08:32 -30.81933 118.61988 37086 ft 506 kts 61°
2026-04-18 08:32 -30.78849 118.69361 37083 ft 507 kts 60°
2026-04-18 08:33 -30.75754 118.76748 37086 ft 507 kts 60°
2026-04-18 08:33 -30.72783 118.84168 37074 ft 511 kts 68°
2026-04-18 08:34 -30.71284 118.92243 37082 ft 514 kts 86°
2026-04-18 08:34 -30.70955 119.00578 36542 ft 520 kts 88°
2026-04-18 08:34 -30.70825 119.04737 35978 ft 519 kts 88°
2026-04-18 08:35 -30.70683 119.08930 35313 ft 519 kts 87°
2026-04-18 08:35 -30.70525 119.13135 34603 ft 520 kts 87°
2026-04-18 08:35 -30.70350 119.17336 33896 ft 520 kts 87°
2026-04-18 08:35 -30.70165 119.21526 33322 ft 515 kts 87°
2026-04-18 08:36 -30.69976 119.25667 32750 ft 510 kts 86°
2026-04-18 08:36 -30.69789 119.29713 32221 ft 504 kts 86°
2026-04-18 08:36 -30.69599 119.33776 31703 ft 499 kts 86°
2026-04-18 08:36 -30.69411 119.37797 31196 ft 494 kts 86°
2026-04-18 08:37 -30.69225 119.41758 30707 ft 489 kts 86°
2026-04-18 08:37 -30.69043 119.45642 30219 ft 485 kts 86°
2026-04-18 08:37 -30.68859 119.49540 29652 ft 480 kts 86°
2026-04-18 08:37 -30.68676 119.53389 29097 ft 474 kts 86°
2026-04-18 08:38 -30.68494 119.57208 28575 ft 469 kts 86°
2026-04-18 08:38 -30.68313 119.60980 28042 ft 464 kts 86°
2026-04-18 08:38 -30.68133 119.64702 27534 ft 459 kts 86°
2026-04-18 08:38 -30.67956 119.68331 27020 ft 454 kts 86°
2026-04-18 08:39 -30.67777 119.71985 26525 ft 450 kts 86°
2026-04-18 08:39 -30.67599 119.75603 26023 ft 446 kts 86°
2026-04-18 08:39 -30.67422 119.79182 25528 ft 442 kts 86°
2026-04-18 08:39 -30.67305 119.81546 25202 ft 439 kts 86°
2026-04-18 08:40 -30.67128 119.85094 24703 ft 436 kts 86°
2026-04-18 08:40 -30.66894 119.89739 24033 ft 433 kts 86°
2026-04-18 08:40 -30.66775 119.92095 23694 ft 431 kts 86°
2026-04-18 08:40 -30.66602 119.95517 23242 ft 425 kts 86°
2026-04-18 08:41 -30.66429 119.98905 22987 ft 415 kts 86°
2026-04-18 08:41 -30.66259 120.02225 22672 ft 408 kts 86°
2026-04-18 08:41 -30.66090 120.05499 22223 ft 405 kts 86°
2026-04-18 08:41 -30.65922 120.08751 21744 ft 402 kts 86°
2026-04-18 08:42 -30.65753 120.11990 21277 ft 399 kts 86°
2026-04-18 08:42 -30.65585 120.15212 20804 ft 400 kts 86°
2026-04-18 08:42 -30.65415 120.18438 20331 ft 399 kts 86°
2026-04-18 08:42 -30.65246 120.21652 19852 ft 397 kts 86°
2026-04-18 08:43 -30.65078 120.24814 19379 ft 395 kts 86°
2026-04-18 08:43 -30.64909 120.27994 18905 ft 393 kts 86°
2026-04-18 08:43 -30.64739 120.31164 18408 ft 391 kts 86°
2026-04-18 08:43 -30.64570 120.34317 17873 ft 389 kts 86°
2026-04-18 08:44 -30.64403 120.37415 17374 ft 387 kts 86°
2026-04-18 08:44 -30.64235 120.40524 16877 ft 383 kts 85°
2026-04-18 08:44 -30.64067 120.43611 16383 ft 380 kts 85°
2026-04-18 08:44 -30.63900 120.46666 15906 ft 378 kts 85°
2026-04-18 08:45 -30.63733 120.49701 15440 ft 375 kts 85°
2026-04-18 08:45 -30.63569 120.52674 14962 ft 372 kts 85°
2026-04-18 08:45 -30.63404 120.55658 14489 ft 370 kts 85°
2026-04-18 08:45 -30.63237 120.58650 13990 ft 369 kts 84°
2026-04-18 08:46 -30.63071 120.61617 13476 ft 367 kts 84°
2026-04-18 08:46 -30.62906 120.64570 12962 ft 364 kts 84°
2026-04-18 08:46 -30.62741 120.67491 12467 ft 361 kts 85°
2026-04-18 08:46 -30.62579 120.70355 11998 ft 357 kts 85°
2026-04-18 08:47 -30.62416 120.73228 11520 ft 354 kts 85°
2026-04-18 08:47 -30.62255 120.76064 11050 ft 350 kts 85°
2026-04-18 08:47 -30.62094 120.78880 10582 ft 347 kts 85°
2026-04-18 08:47 -30.61935 120.81653 10329 ft 337 kts 85°
2026-04-18 08:48 -30.61784 120.84280 10171 ft 324 kts 85°
2026-04-18 08:48 -30.61635 120.86854 9998 ft 314 kts 85°
2026-04-18 08:48 -30.61493 120.89315 9953 ft 298 kts 85°
2026-04-18 08:48 -30.61640 120.91742 9284 ft 306 kts 107°
2026-04-18 08:49 -30.62330 120.94071 8846 ft 305 kts 111°
2026-04-18 08:49 -30.63076 120.96365 8462 ft 302 kts 111°
2026-04-18 08:49 -30.63826 120.98644 8078 ft 300 kts 111°
2026-04-18 08:49 -30.64563 121.00899 7661 ft 299 kts 111°
2026-04-18 08:50 -30.65297 121.03164 7259 ft 298 kts 111°
2026-04-18 08:50 -30.66015 121.05394 6863 ft 297 kts 111°
2026-04-18 08:50 -30.66731 121.07631 6494 ft 295 kts 110°
2026-04-18 08:50 -30.67450 121.09859 6105 ft 293 kts 112°
2026-04-18 08:51 -30.68201 121.12045 5742 ft 289 kts 112°
2026-04-18 08:51 -30.68922 121.14215 5402 ft 285 kts 112°
2026-04-18 08:51 -30.69598 121.16331 5075 ft 282 kts 111°
2026-04-18 08:51 -30.70263 121.18442 4905 ft 272 kts 112°
2026-04-18 08:52 -30.70899 121.20459 4801 ft 258 kts 111°
2026-04-18 08:52 -30.71495 121.22349 4682 ft 241 kts 112°
2026-04-18 08:52 -30.72056 121.24126 4564 ft 227 kts 112°
2026-04-18 08:52 -30.72584 121.25796 4447 ft 213 kts 112°
2026-04-18 08:53 -30.73080 121.27361 4282 ft 202 kts 113°
2026-04-18 08:53 -30.73561 121.28876 4053 ft 196 kts 112°
2026-04-18 08:53 -30.74022 121.30329 3847 ft 190 kts 112°
2026-04-18 08:53 -30.74467 121.31735 3687 ft 181 kts 113°
2026-04-18 08:54 -30.74900 121.33101 3451 ft 178 kts 113°
2026-04-18 08:54 -30.75329 121.34451 3207 ft 178 kts 112°
2026-04-18 08:54 -30.75756 121.35796 2983 ft 176 kts 113°
2026-04-18 08:54 -30.76180 121.37130 2765 ft 176 kts 112°
2026-04-18 08:55 -30.76599 121.38453 2517 ft 177 kts 112°
2026-04-18 08:55 -30.77017 121.39768 2320 ft 169 kts 113°
2026-04-18 08:55 -30.77399 121.40992 2144 ft 153 kts 111°
2026-04-18 08:55 -30.77750 121.42134 1891 ft 147 kts 112°
2026-04-18 08:56 -30.78114 121.43244 1695 ft 147 kts 112°
2026-04-18 08:56 -30.78466 121.44369 1448 ft 149 kts 114°
2026-04-18 08:56 -30.78831 121.45483 1229 ft 142 kts 112°
2026-04-18 08:56 -30.79139 121.46435 1209 ft 106 kts 113°
2026-04-18 08:57 -30.79432 121.47341 1210 ft 9 kts 103°
2026-04-18 08:57 -30.79436 121.47401 1210 ft 3 kts 158°
2026-04-18 08:57 -30.79443 121.47377 1210 ft 5 kts 279°
2026-04-18 08:58 -30.79422 121.47312 1211 ft 12 kts 291°
2026-04-18 08:58 -30.79384 121.47198 1211 ft 18 kts 289°
2026-04-18 08:58 -30.79334 121.47033 1211 ft 25 kts 291°
2026-04-18 08:58 -30.79266 121.46828 1210 ft 30 kts 290°
2026-04-18 08:59 -30.79185 121.46575 1209 ft 36 kts 290°
2026-04-18 08:59 -30.79091 121.46288 1210 ft 39 kts 291°
2026-04-18 08:59 -30.78998 121.45999 1212 ft 37 kts 290°
2026-04-18 08:59 -30.78925 121.45774 1213 ft 18 kts 291°
2026-04-18 09:00 -30.78879 121.45709 1212 ft 10 kts 358°
2026-04-18 09:00 -30.78815 121.45735 1211 ft 10 kts 21°
2026-04-18 09:00 -30.78754 121.45762 1211 ft 9 kts 20°
2026-04-18 09:00 -30.78694 121.45787 1211 ft 9 kts 20°
2026-04-18 09:01 -30.78653 121.45796 1211 ft 4 kts 344°
2026-04-18 09:01 -30.78629 121.45780 1211 ft 4 kts 314°
2026-04-18 09:01 -30.78621 121.45763 1211 ft 0 kts 289°
2026-04-18 09:02 -30.78618 121.45761 1211 ft 1 kts 321°
2026-04-18 09:03 -30.78599 121.45743 1211 ft 5 kts 315°
2026-04-18 09:03 -30.78580 121.45732 1211 ft 2 kts 28°
2026-04-18 09:03 -30.78574 121.45743 1211 ft 0 kts 56°